{"data":{"norad_id":59541,"epoch":"2026-09-21T14:44:52.646208Z","epoch_age_seconds":71862,"freshness":"FRESH","line1":"1 59541U 24074H   26264.61449822  .00000695  00000+0  34768-4 0  9998","line2":"2 59541  43.0031 316.6016 0001373 243.6792 116.3919 15.27578204135984","mean_motion":15.27578204,"eccentricity":0.0001373,"inclination_deg":43.0031,"raan_deg":316.6016,"arg_perigee_deg":243.6792,"mean_anomaly_deg":116.3919,"bstar":3.4768e-5,"rev_number":13598,"period_min":94.266859544691,"perigee_km":482.11243232566,"apogee_km":483.9965155044,"semimajor_km":6861.191473915,"source":"CELESTRAK","updated_at":"2026-09-22T09:00:48.972182Z"}}